Location: Plainartige
(45.6866°N, 1.7993°E)
Time: 13:40:44
(UTC+00:00)

Meteor 2-12 Rocket - Pass Details

Date: 03 March 2021
Orbit: 936 x 957 km, 82.5° (Epoch: 16 April)

Event Time Altitude Azimuth Distance (km) Brightness Sun altitude
Rises 18:48:54 0° 183° (S) 3,584 7.5 -12.4°
Reaches altitude 10° 18:51:22 10° 183° (S) 2,646 6.8 -12.8°
Maximum altitude 18:57:25 81° 97° (E) 959 4.4 -13.9°
Drops below altitude 10° 19:03:32 10° 11° (N) 2,677 6.8 -14.9°
Sets 19:06:02 0° 10° (N) 3,629 7.5 -15.4°
